Location: Bastogne Gables
(35.1554°N, 78.9900°W)
Time: 21:36:03
(UTC+00:00)

AQUARIUS - Pass Details

Date: 02 March 2021
Orbit: 650 x 652 km, 98.0° (Epoch: 16 April)

Event Time Altitude Azimuth Distance (km) Brightness Sun altitude
Rises 23:49:56 0° 202° (SSW) 2,958 7.9 -8.4°
Reaches altitude 10° 23:52:41 10° 219° (SW) 2,052 7.4 -9.0°
Maximum altitude 23:55:54 19° 265° (W) 1,533 7.4 -9.6°
Drops below altitude 10° 23:59:08 10° 312° (NW) 2,063 7.5 -10.3°
Sets 00:01:55 0° 330° (NNW) 2,979 8.0 -10.8°
